Home   Weather   Springe   Past weeks

Flag for Germany Past Weather in Springe, Lower Saxony, Germany — Yesterday and Last 2 Weeks

Now
41 °F

Light rain. Broken clouds.


Feels Like: 34 °F
Forecast: 47 / 53 °F
Wind: 13 mph from West

Location: Wunstorf Airport

Current Time: Nov 20, 2017 at 1:30:53 pm

Latest Report: Nov 20, 2017 at 12:20 pm


Visibility: N/A

Pressure: 30.01 "Hg

Humidity: 87%

Dew Point: 37 °F

Location of SpringeLocation

Past Weather in Springe — Graph

°F

Springe Temperature Yesterday

Maximum temperature yesterday: 46 °F (at 1:20 pm)
Minimum temperature yesterday: 39 °F (at 12:20 am)
Average temperature yesterday: 42 °F

High & Low Weather Summary for the Past Weeks

 TemperatureHumidityPressure
High50 °F (Nov 5, 12:20 pm)100% (Nov 6, 6:20 pm)30.33 "Hg (Nov 6, 6:20 pm)
Low32 °F (Nov 7, 2:20 am)62% (Nov 17, 3:20 pm)29.47 "Hg (Nov 12, 3:20 pm)
Average43 °F89%30.03 "Hg
* Reported Nov 5 12:20 pm — Nov 20 12:20 pm, Springe. Weather by CustomWeather, © 2017

Note: Actual official high and low records may vary slightly from our data, if they occured in-between our weather recording intervals... More about our weather records

Advertising

Springe Weather History for the Previous 24 Hours

Scroll right to see more
 ConditionsComfort  
Time TempWeatherWind HumidityBarometerVisibility
12:20 pm
Mon, Nov 20
41 °FLight rain. Broken clouds.13 mph87%30.01 "HgN/A
11:20 am43 °FBroken clouds.14 mph81%30.01 "HgN/A
10:45 am41 °FLight rain. Broken clouds.15 mph93%30.01 "HgN/A
10:20 am43 °FDrizzle. Broken clouds.14 mph87%30.01 "Hg4 mi
9:20 am41 °FBroken clouds.10 mph93%30.01 "HgN/A
8:20 am41 °FPartly sunny.9 mph93%30.01 "Hg6 mi
7:27 am41 °FSprinkles. Partly cloudy.12 mph93%30.01 "Hg4 mi
6:20 am41 °FPassing clouds.12 mph93%30.01 "HgN/A
5:20 am41 °FPassing clouds.10 mph87%30.01 "HgN/A
4:20 am41 °FPassing clouds.14 mph87%30.01 "HgN/A
3:20 am39 °FPassing clouds.12 mph87%30.01 "HgN/A
2:20 am39 °FPassing clouds.12 mph87%30.01 "HgN/A
1:20 am41 °FPassing clouds.14 mph87%30.01 "HgN/A
12:20 am41 °FPassing clouds.13 mph87%30.01 "HgN/A
11:20 pm
Sun, Nov 19
41 °FLight rain. Partly cloudy.14 mph93%30.01 "HgN/A
11:00 pm41 °FPartly cloudy.14 mph93%29.98 "HgN/A
10:20 pm41 °FRain showers. Partly cloudy.10 mph93%30.01 "Hg5 mi
9:38 pm41 °FSprinkles. Partly cloudy.13 mph93%29.98 "HgN/A
9:20 pm41 °FRain showers. Partly cloudy.13 mph93%29.98 "Hg3 mi
9:14 pm41 °FRain showers. Partly cloudy.13 mph93%29.98 "Hg3 mi
8:20 pm41 °FLight rain. Partly cloudy.14 mph93%29.95 "HgN/A
7:20 pm43 °FSprinkles. Partly cloudy.16 mph87%29.92 "HgN/A
7:00 pm43 °FSprinkles. Passing clouds.17 mph87%29.92 "HgN/A
6:40 pm43 °FRain showers. Passing clouds.18 mph87%29.92 "Hg3 mi
6:20 pm43 °FSprinkles. Passing clouds.22 mph87%29.89 "HgN/A
5:20 pm45 °FQuite cool.22 mph76%29.86 "HgN/A
4:20 pm45 °FQuite cool.23 mph81%29.86 "HgN/A
3:20 pm45 °FQuite cool.17 mph81%29.83 "HgN/A
2:20 pm43 °FQuite cool.16 mph87%29.86 "HgN/A
1:20 pm46 °FCool.21 mph76%29.83 "HgN/A
Weather by CustomWeather, © 2017

See weather overview